{"data":{"norad_id":35362,"intl_designator":"2009-032A","name":"MEASAT-3A","alt_names":[],"object_type":"PAYLOAD","status":"ACTIVE","operator":null,"country":"MALA","launch_date":"2009-06-21","launch_site_code":"TYMSC","launch_vehicle":null,"mission":null,"orbit_class":"UNKNOWN","rcs_meters":31.6228,"size_class":null,"mass_kg":null,"dimensions":null,"purposes":["comms"],"wikipedia_slug":null,"has_3d_model":false,"image_url":null,"decayed_at":null,"tle_current":{"epoch":"2026-05-25T02:47:28.294080Z","epoch_age_seconds":61669,"freshness":"FRESH","line1":"1 35362U 09032A   26145.11629970 -.00000113  00000+0  00000+0 0  9990","line2":"2 35362   0.0316  24.4442 0002966  35.6971  24.4301  1.00271319  7808","mean_motion":1.00271319,"eccentricity":0.0002966,"inclination_deg":0.0316,"raan_deg":24.4442,"arg_perigee_deg":35.6971,"mean_anomaly_deg":24.4301,"bstar":0,"rev_number":780,"period_min":1436.1035781328,"perigee_km":35774.219500166,"apogee_km":35799.23169666,"semimajor_km":42164.862598413,"source":"CELESTRAK","updated_at":"2026-05-25T13:38:13.864088Z"}}}